Location: Silverdale
(47.6506°N, 122.6941°W)
Time: 16:16:13
(UTC+00:00)

Transit 2A - Pass Details

Date: 12 October 2022
Orbit: 598 x 959 km, 66.7° (Epoch: 30 November)

Event Time Altitude Azimuth Distance (km) Brightness Sun altitude
Exits shadow 10:50:59 - 3° (N) 2,107 8.6 -35.5°
Reaches altitude 10° 10:51:26 10° 8° (N) 2,058 8.6 -35.5°
Maximum altitude 10:52:47 11° 25° (NNE) 2,008 8.7 -35.3°
Drops below altitude 10° 10:54:10 10° 42° (NE) 2,108 9.0 -35.1°
Sets 10:58:30 0° 78° (ENE) 3,118 10.1 -34.5°
